| time (UTC) | temp F | wind direction | speed MPH | gust MPH | rain 1hr in | rain 24hr in | rain mn in | humidity % | barometer mb |
| 20260903222637 | 75 | 216 | 2.0 | 4.0 | 0.00 | 0.00 | 0.00 | 82 | 1016.4 |
| 20260903221617 | 75 | 259 | 2.0 | 5.0 | 0.00 | 0.01 | 0.00 | 83 | 1016.5 |
| 20260903220617 | 74 | 201 | 1.0 | 3.0 | 0.00 | 0.01 | 0.00 | 82 | 1016.5 |
| 20260903215617 | 74 | 220 | 0.0 | 1.0 | 0.00 | 0.01 | 0.00 | 81 | 1016.6 |
| 20260903214637 | 74 | 221 | 2.0 | 4.0 | 0.00 | 0.01 | 0.00 | 82 | 1016.7 |
| 20260903213617 | 74 | 207 | 2.0 | 4.0 | 0.00 | 0.01 | 0.00 | 81 | 1016.8 |
| 20260903212617 | 74 | 207 | 2.0 | 3.0 | 0.00 | 0.01 | 0.00 | 82 | 1016.9 |
| 20260903211658 | 74 | 300 | 1.0 | 3.0 | 0.00 | 0.01 | 0.00 | 84 | 1017.0 |
| 20260903210637 | 73 | 257 | 1.0 | 3.0 | 0.00 | 0.01 | 0.00 | 83 | 1017.2 |
| 20260903205617 | 73 | 253 | 1.0 | 2.0 | 0.00 | 0.01 | 0.00 | 82 | 1017.2 |
| 20260903204617 | 73 | 238 | 1.0 | 3.0 | 0.00 | 0.01 | 0.00 | 83 | 1017.1 |
| 20260903203617 | 73 | 277 | 2.0 | 4.0 | 0.00 | 0.01 | 0.00 | 82 | 1017.0 |
| 20260903202617 | 72 | 265 | 0.0 | 1.0 | 0.00 | 0.01 | 0.00 | 83 | 1017.1 |
| 20260903201617 | 72 | 232 | 2.0 | 5.0 | 0.00 | 0.01 | 0.00 | 82 | 1017.1 |
| 20260903200617 | 72 | 286 | 1.0 | 2.0 | 0.00 | 0.01 | 0.00 | 82 | 1017.1 |
| 20260903195617 | 72 | 313 | 1.0 | 2.0 | 0.00 | 0.01 | 0.00 | 84 | 1017.2 |
| 20260903194618 | 72 | 346 | 4.0 | 5.0 | 0.00 | 0.01 | 0.00 | 82 | 1017.2 |
| 20260903193617 | 72 | 332 | 2.0 | 6.0 | 0.00 | 0.01 | 0.00 | 80 | 1017.2 |
| 20260903192616 | 72 | 309 | 2.0 | 4.0 | 0.00 | 0.01 | 0.00 | 80 | 1017.2 |
| 20260903191637 | 72 | 328 | 1.0 | 2.0 | 0.00 | 0.01 | 0.00 | 80 | 1017.4 |
| 20260903190617 | 73 | 206 | 1.0 | 2.0 | 0.00 | 0.01 | 0.00 | 77 | 1017.4 |
| 20260903185617 | 72 | 313 | 0.0 | 2.0 | 0.00 | 0.01 | 0.00 | 76 | 1017.2 |
| 20260903184637 | 72 | 272 | 0.0 | 1.0 | 0.00 | 0.01 | 0.00 | 77 | 1017.2 |
| 20260903183617 | 71 | 276 | 1.0 | 2.0 | 0.00 | 0.01 | 0.00 | 74 | 1017.2 |
| 20260903182620 | 70 | 221 | 1.0 | 2.0 | 0.00 | 0.01 | 0.00 | 80 | 1017.1 |
| 20260903181617 | 67 | 15 | 0.0 | 1.0 | 0.00 | 0.01 | 0.00 | 78 | 1017.2 |
| 20260903180617 | 65 | 27 | 0.0 | 1.0 | 0.00 | 0.01 | 0.00 | 82 | 1017.0 |
| 20260903175617 | 64 | 107 | 1.0 | 1.0 | 0.00 | 0.01 | 0.00 | 83 | 1017.0 |
| 20260903174617 | 63 | 93 | 0.0 | 1.0 | 0.00 | 0.01 | 0.00 | 81 | 1016.9 |
| 20260903173617 | 62 | 108 | 3.0 | 4.0 | 0.00 | 0.01 | 0.00 | 83 | 1016.9 |
| 20260903172617 | 61 | 106 | 2.0 | 3.0 | 0.00 | 0.01 | 0.00 | 82 | 1016.7 |
| 20260903171617 | 61 | 123 | 1.0 | 2.0 | 0.00 | 0.01 | 0.00 | 85 | 1016.7 |
| 20260903170617 | 61 | 42 | 1.0 | 3.0 | 0.00 | 0.01 | 0.00 | 87 | 1016.9 |
| 20260903165617 | 60 | 93 | 3.0 | 4.0 | 0.00 | 0.01 | 0.00 | 80 | 1016.6 |
| 20260903164636 | 60 | 109 | 2.0 | 3.0 | 0.00 | 0.01 | 0.00 | 84 | 1016.6 |
| 20260903163617 | 59 | 108 | 1.0 | 2.0 | 0.00 | 0.01 | 0.00 | 81 | 1016.6 |
| 20260903162617 | 59 | 120 | 2.0 | 3.0 | 0.00 | 0.01 | 0.00 | 81 | 1016.1 |
| 20260903161617 | 59 | 104 | 3.0 | 4.0 | 0.00 | 0.01 | 0.00 | 80 | 1016.5 |
| 20260903160617 | 59 | 118 | 1.0 | 2.0 | 0.00 | 0.01 | 0.00 | 81 | 1016.4 |
| 20260903155617 | 59 | 110 | 2.0 | 4.0 | 0.00 | 0.01 | 0.00 | 79 | 1016.4 |
| 20260903154637 | 59 | 69 | 1.0 | 2.0 | 0.00 | 0.01 | 0.00 | 80 | 1016.3 |
| 20260903153617 | 59 | 102 | 2.0 | 3.0 | 0.00 | 0.01 | 0.00 | 79 | 1016.1 |
| 20260903152657 | 59 | 98 | 2.0 | 3.0 | 0.00 | 0.01 | 0.00 | 81 | 1016.1 |
| 20260903151617 | 60 | 109 | 3.0 | 4.0 | 0.00 | 0.01 | 0.00 | 80 | 1016.2 |
| 20260903150617 | 60 | 100 | 2.0 | 3.0 | 0.00 | 0.01 | 0.00 | 79 | 1016.1 |
| 20260903145617 | 60 | 99 | 2.0 | 3.0 | 0.00 | 0.01 | 0.00 | 81 | 1016.1 |
| 20260903144616 | 60 | 110 | 2.0 | 3.0 | 0.00 | 0.01 | 0.00 | 82 | 1015.9 |
| 20260903143617 | 61 | 99 | 2.0 | 3.0 | 0.00 | 0.01 | 0.00 | 81 | 1015.9 |
| 20260903142617 | 61 | 93 | 1.0 | 2.0 | 0.00 | 0.01 | 0.00 | 82 | 1016.1 |
| 20260903141617 | 61 | 88 | 1.0 | 3.0 | 0.00 | 0.01 | 0.00 | 81 | 1016.3 |
| 20260903140617 | 61 | 97 | 2.0 | 4.0 | 0.00 | 0.01 | 0.00 | 84 | 1016.2 |
| 20260903135617 | 59 | 104 | 3.0 | 6.0 | 0.00 | 0.01 | 0.00 | 84 | 1015.8 |
| 20260903134637 | 59 | 134 | 2.0 | 3.0 | 0.00 | 0.01 | 0.00 | 87 | 1016.2 |
| 20260903133637 | 59 | 107 | 2.0 | 2.0 | 0.00 | 0.01 | 0.00 | 86 | 1016.2 |
| 20260903132657 | 60 | 113 | 2.0 | 3.0 | 0.00 | 0.01 | 0.00 | 86 | 1016.2 |
| 20260903131617 | 60 | 107 | 0.0 | 1.0 | 0.00 | 0.01 | 0.00 | 88 | 1016.1 |
| 20260903130637 | 60 | 108 | 2.0 | 2.0 | 0.00 | 0.01 | 0.00 | 85 | 1016.2 |
| 20260903125637 | 60 | 111 | 1.0 | 2.0 | 0.00 | 0.01 | 0.00 | 85 | 1016.3 |
| 20260903124617 | 60 | 102 | 2.0 | 3.0 | 0.00 | 0.01 | 0.00 | 85 | 1016.3 |
| 20260903123617 | 60 | 129 | 2.0 | 3.0 | 0.00 | 0.01 | 0.00 | 83 | 1016.2 |
| 20260903122637 | 60 | 110 | 2.0 | 3.0 | 0.00 | 0.01 | 0.00 | 81 | 1016.2 |
| 20260903121617 | 60 | 114 | 2.0 | 2.0 | 0.00 | 0.01 | 0.00 | 82 | 1016.4 |
| 20260903120616 | 60 | 105 | 2.0 | 3.0 | 0.00 | 0.01 | 0.00 | 82 | 1016.3 |
| 20260903115617 | 60 | 106 | 2.0 | 4.0 | 0.00 | 0.01 | 0.00 | 80 | 1016.6 |
| 20260903114617 | 60 | 107 | 2.0 | 3.0 | 0.00 | 0.01 | 0.00 | 82 | 1016.6 |
| 20260903113617 | 61 | 105 | 2.0 | 2.0 | 0.00 | 0.01 | 0.00 | 82 | 1016.8 |
| 20260903112657 | 61 | 99 | 2.0 | 3.0 | 0.00 | 0.01 | 0.00 | 82 | 1016.8 |
| 20260903111617 | 61 | 100 | 2.0 | 3.0 | 0.00 | 0.01 | 0.00 | 83 | 1016.8 |
| 20260903110637 | 61 | 97 | 2.0 | 3.0 | 0.00 | 0.01 | 0.00 | 81 | 1017.1 |
| 20260903105618 | 61 | 92 | 2.0 | 3.0 | 0.00 | 0.01 | 0.00 | 83 | 1017.0 |
| 20260903104617 | 60 | 101 | 2.0 | 3.0 | 0.00 | 0.01 | 0.00 | 78 | 1017.2 |
| 20260903103617 | 61 | 116 | 2.0 | 3.0 | 0.00 | 0.01 | 0.00 | 83 | 1017.2 |
| 20260903102617 | 61 | 97 | 2.0 | 3.0 | 0.00 | 0.01 | 0.00 | 82 | 1017.4 |
| 20260903101617 | 61 | 110 | 2.0 | 3.0 | 0.00 | 0.01 | 0.00 | 83 | 1017.4 |
| 20260903100617 | 62 | 108 | 2.0 | 3.0 | 0.00 | 0.01 | 0.00 | 86 | 1017.5 |
| 20260903095617 | 61 | 97 | 2.0 | 3.0 | 0.00 | 0.01 | 0.01 | 84 | 1017.6 |
| 20260903094617 | 62 | 113 | 2.0 | 3.0 | 0.00 | 0.01 | 0.01 | 84 | 1017.9 |
| 20260903093617 | 62 | 119 | 2.0 | 3.0 | 0.00 | 0.01 | 0.01 | 85 | 1017.9 |
| 20260903092617 | 64 | 118 | 2.0 | 2.0 | 0.00 | 0.01 | 0.01 | 86 | 1017.8 |
| 20260903091617 | 64 | 0.0 | 0.0 | 0.00 | 0.01 | 0.01 | 90 | 1017.9 | |
| 20260903090617 | 65 | 0.0 | 0.0 | 0.00 | 0.01 | 0.01 | 92 | 1018.0 | |
| 20260903085617 | 65 | 0.0 | 0.0 | 0.00 | 0.01 | 0.01 | 93 | 1018.0 | |
| 20260903084617 | 65 | 0.0 | 0.0 | 0.00 | 0.01 | 0.01 | 91 | 1017.9 | |
| 20260903083617 | 65 | 0.0 | 0.0 | 0.00 | 0.01 | 0.01 | 89 | 1018.0 | |
| 20260903082617 | 65 | 0.0 | 0.0 | 0.00 | 0.01 | 0.01 | 87 | 1017.9 | |
| 20260903081637 | 65 | 0.0 | 0.0 | 0.00 | 0.01 | 0.01 | 87 | 1017.8 | |
| 20260903080637 | 65 | 46 | 0.0 | 1.0 | 0.00 | 0.01 | 0.01 | 87 | 1017.8 |
| 20260903075617 | 65 | 92 | 1.0 | 3.0 | 0.00 | 0.01 | 0.01 | 86 | 1017.9 |
| 20260903074617 | 65 | 154 | 1.0 | 4.0 | 0.00 | 0.01 | 0.01 | 87 | 1018.0 |
| 20260903073617 | 65 | 130 | 0.0 | 2.0 | 0.00 | 0.01 | 0.01 | 83 | 1017.9 |
| 20260903072637 | 65 | 124 | 1.0 | 3.0 | 0.00 | 0.01 | 0.01 | 87 | 1017.8 |
| 20260903071637 | 66 | 0.0 | 1.0 | 0.00 | 0.01 | 0.01 | 88 | 1017.8 | |
| 20260903070617 | 66 | 0.0 | 0.0 | 0.00 | 0.01 | 0.01 | 91 | 1017.7 | |
| 20260903065617 | 66 | 0.0 | 0.0 | 0.00 | 0.01 | 0.01 | 93 | 1017.4 | |
| 20260903064617 | 65 | 38 | 1.0 | 1.0 | 0.00 | 0.01 | 0.01 | 89 | 1017.5 |
| 20260903063617 | 65 | 98 | 1.0 | 2.0 | 0.00 | 0.01 | 0.01 | 89 | 1017.4 |
| 20260903062617 | 65 | 111 | 0.0 | 2.0 | 0.00 | 0.01 | 0.01 | 89 | 1017.3 |
| 20260903061637 | 66 | 96 | 2.0 | 3.0 | 0.00 | 0.01 | 0.01 | 89 | 1017.3 |
| 20260903060637 | 67 | 109 | 1.0 | 2.0 | 0.00 | 0.02 | 0.01 | 90 | 1017.2 |
| 20260903055616 | 67 | 0.0 | 2.0 | 0.00 | 0.02 | 0.01 | 92 | 1017.0 | |
| 20260903054617 | 67 | 32 | 0.0 | 2.0 | 0.00 | 0.02 | 0.01 | 91 | 1016.9 |
| 20260903053617 | 67 | 79 | 1.0 | 2.0 | 0.00 | 0.02 | 0.01 | 90 | 1016.8 |
| 20260903052657 | 67 | 0.0 | 0.0 | 0.00 | 0.02 | 0.01 | 89 | 1016.7 | |
| 20260903051637 | 68 | 0.0 | 0.0 | 0.00 | 0.02 | 0.01 | 88 | 1016.6 | |
| 20260903050617 | 68 | 83 | 0.0 | 1.0 | 0.00 | 0.02 | 0.01 | 87 | 1016.6 |
| 20260903045617 | 69 | 105 | 0.0 | 1.0 | 0.00 | 0.02 | 0.01 | 88 | 1016.4 |
| 20260903044637 | 69 | 118 | 1.0 | 1.0 | 0.00 | 0.02 | 0.01 | 89 | 1016.4 |
| 20260903043637 | 69 | 197 | 0.0 | 1.0 | 0.00 | 0.02 | 0.01 | 90 | 1016.3 |
| 20260903042617 | 70 | 197 | 3.0 | 4.0 | 0.00 | 0.02 | 0.01 | 89 | 1016.2 |
| 20260903041637 | 70 | 212 | 5.0 | 7.0 | 0.00 | 0.02 | 0.01 | 89 | 1016.3 |
| 20260903040637 | 71 | 191 | 2.0 | 5.0 | 0.00 | 0.02 | 0.01 | 89 | 1016.3 |
| 20260903035617 | 71 | 216 | 3.0 | 5.0 | 0.00 | 0.02 | 0.01 | 89 | 1016.2 |
| 20260903034637 | 72 | 199 | 4.0 | 6.0 | 0.00 | 0.02 | 0.01 | 88 | 1016.1 |
| 20260903033637 | 73 | 214 | 3.0 | 6.0 | 0.00 | 0.02 | 0.01 | 85 | 1016.1 |
| 20260903032617 | 75 | 229 | 3.0 | 7.0 | 0.00 | 0.02 | 0.01 | 83 | 1016.0 |
| 20260903031637 | 75 | 217 | 2.0 | 4.0 | 0.00 | 0.02 | 0.01 | 84 | 1015.8 |
| 20260903030616 | 75 | 208 | 2.0 | 5.0 | 0.00 | 0.02 | 0.01 | 85 | 1015.8 |
| 20260903025617 | 76 | 212 | 7.0 | 10.0 | 0.00 | 0.02 | 0.01 | 83 | 1015.8 |
| 20260903024617 | 77 | 218 | 3.0 | 7.0 | 0.00 | 0.02 | 0.01 | 82 | 1015.7 |
| 20260903023617 | 77 | 209 | 3.0 | 5.0 | 0.00 | 0.02 | 0.01 | 82 | 1015.7 |
| 20260903022617 | 77 | 197 | 4.0 | 11.0 | 0.00 | 0.02 | 0.01 | 82 | 1015.8 |
| 20260903021617 | 77 | 218 | 3.0 | 8.0 | 0.00 | 0.02 | 0.01 | 83 | 1015.7 |
| 20260903020617 | 77 | 215 | 4.0 | 6.0 | 0.00 | 0.02 | 0.01 | 82 | 1015.8 |
| 20260903015637 | 77 | 235 | 2.0 | 4.0 | 0.00 | 0.02 | 0.01 | 81 | 1015.8 |
| 20260903014617 | 77 | 230 | 1.0 | 4.0 | 0.00 | 0.02 | 0.01 | 83 | 1015.7 |
| 20260903013617 | 78 | 223 | 3.0 | 6.0 | 0.00 | 0.02 | 0.01 | 83 | 1015.7 |
| 20260903012637 | 77 | 264 | 1.0 | 3.0 | 0.00 | 0.02 | 0.01 | 83 | 1015.6 |
| 20260903011617 | 77 | 331 | 2.0 | 3.0 | 0.00 | 0.02 | 0.01 | 79 | 1015.7 |
| 20260903010617 | 78 | 298 | 2.0 | 3.0 | 0.00 | 0.02 | 0.01 | 80 | 1015.9 |
| 20260903005616 | 77 | 291 | 1.0 | 3.0 | 0.00 | 0.02 | 0.01 | 83 | 1015.9 |
| 20260903004637 | 75 | 225 | 1.0 | 2.0 | 0.00 | 0.02 | 0.01 | 85 | 1015.9 |
| 20260903003616 | 74 | 184 | 0.0 | 1.0 | 0.00 | 0.02 | 0.01 | 87 | 1015.9 |
| 20260903002617 | 74 | 314 | 0.0 | 1.0 | 0.00 | 0.02 | 0.01 | 86 | 1016.0 |
| 20260903001616 | 75 | 334 | 2.0 | 3.0 | 0.00 | 0.02 | 0.01 | 86 | 1016.0 |
| 20260903000616 | 76 | 244 | 1.0 | 2.0 | 0.00 | 0.02 | 0.01 | 85 | 1016.1 |
| 20260902235616 | 75 | 333 | 0.0 | 2.0 | 0.00 | 0.02 | 0.01 | 84 | 1016.2 |
| 20260902234617 | 75 | 349 | 1.0 | 3.0 | 0.00 | 0.02 | 0.01 | 83 | 1016.3 |
| 20260902233616 | 74 | 9 | 1.0 | 2.0 | 0.00 | 0.02 | 0.01 | 87 | 1016.4 |
| 20260902232616 | 73 | 113 | 0.0 | 2.0 | 0.00 | 0.02 | 0.01 | 87 | 1016.7 |
| 20260902231616 | 74 | 190 | 0.0 | 3.0 | 0.01 | 0.02 | 0.01 | 85 | 1016.9 |
| 20260902230616 | 73 | 252 | 1.0 | 2.0 | 0.01 | 0.02 | 0.01 | 88 | 1016.9 |
| 20260902225616 | 73 | 212 | 2.0 | 3.0 | 0.01 | 0.02 | 0.01 | 89 | 1017.0 |
| 20260902224617 | 73 | 215 | 0.0 | 1.0 | 0.01 | 0.02 | 0.01 | 90 | 1017.1 |
| 20260902223616 | 72 | 195 | 1.0 | 2.0 | 0.01 | 0.02 | 0.01 | 91 | 1017.0 |